User: anonymous   Login
Location: Solon
(41.3849°N, 81.4081°W)
Time: 05:19:50
(UTC-04:00)
Language:

CZ-2C R/B - Orbit

View from above orbital plane
View from above orbital plane
View from above satellite
View from above satellite

Ground track
Ground track

The orbit data is extracted from the following two-line orbital elements,

1 28480U 04046B   17083.95844611 +.00000005 +00000-0 +16973-4 0  9998
2 28480 098.1919 185.5937 0143225 113.0036 347.6280 14.25630682642212
Epoch (UTC): 24 March 2017 23:00:09
Eccentricity: 0.0143225
inclination: 98.1919°
perigee height: 703 km
apogee height: 909 km
right ascension of ascending node: 185.5937°
argument of perigee: 113.0036°
revolutions per day: 14.25630682
mean anomaly at epoch: 347.6280°
orbit number at epoch: 64221

The dashed part of the orbit path shows where the satellite is in the earth's shadow,  

DLR